This is the latest recevied weather packets stored in our database for station/object KB1FFS. If no packets are shown the sender has not sent any weather packets the latest 10 day(s).
| Time | Temp. | Humidity | Pressure | Rain* | Wind** | Luminosity | Snow |
|---|---|---|---|---|---|---|---|
| 1787896449 | 30° C | 53% | 1017.6 hPa | 0 mm | - | 0 W/m² | - |
| 1787896144 | 30° C | 52% | 1017.7 hPa | 0 mm | - | 0 W/m² | - |
| 1787895840 | 30.56° C | 51% | 1017.6 hPa | 0 mm | - | 0 W/m² | - |
| 1787895539 | 30.56° C | 49% | 1017.7 hPa | 0 mm | - | 0 W/m² | - |
| 1787895235 | 30.56° C | 49% | 1017.7 hPa | 0 mm | - | 0 W/m² | - |
| 1787894930 | 31.11° C | 49% | 1017.5 hPa | 0 mm | - | 0 W/m² | - |
| 1787894626 | 31.11° C | 48% | 1017.3 hPa | 0 mm | - | 0 W/m² | - |
| 1787894324 | 31.11° C | 48% | 1017.2 hPa | 0 mm | - | 0 W/m² | - |
| 1787894021 | 31.11° C | 48% | 1017.4 hPa | 0 mm | - | 0 W/m² | - |
| 1787893718 | 31.11° C | 48% | 1017.2 hPa | 0 mm | - | 0 W/m² | - |
| 1787893417 | 31.67° C | 48% | 1017.3 hPa | 0 mm | - | 0 W/m² | - |
| 1787893113 | 31.11° C | 47% | 1017.2 hPa | 0 mm | - | 0 W/m² | - |
| 1787892810 | 31.11° C | 47% | 1017.3 hPa | 0 mm | - | 0 W/m² | - |
| 1787892505 | 31.11° C | 48% | 1017.2 hPa | 0 mm | - | 0 W/m² | - |
| 1787892202 | 31.11° C | 48% | 1017.2 hPa | 0 mm | - | 0 W/m² | - |
| 1787891902 | 31.67° C | 48% | 1017.1 hPa | 0 mm | - | 0 W/m² | - |
| 1787891597 | 31.67° C | 48% | 1017.1 hPa | 0 mm | - | 0 W/m² | - |
| 1787891293 | 31.67° C | 47% | 1017 hPa | 0 mm | - | 0 W/m² | - |
| 1787890988 | 32.22° C | 47% | 1016.7 hPa | 0 mm | - | 0 W/m² | - |
| 1787890687 | 32.22° C | 45% | 1016.9 hPa | 0 mm | - | 0 W/m² | - |
| 1787890381 | 32.22° C | 45% | 1016.7 hPa | 0 mm | - | 0 W/m² | - |
| 1787890077 | 32.22° C | 44% | 1016.9 hPa | 0 mm | - | 0 W/m² | - |
| 1787889772 | 32.22° C | 44% | 1016.7 hPa | 0 mm | - | 0 W/m² | - |
| 1787889467 | 32.22° C | 44% | 1016.5 hPa | 0 mm | - | 0 W/m² | - |
| 1787889166 | 32.22° C | 44% | 1016.7 hPa | 0 mm | - | 0 W/m² | - |
* Rain latest hour (hover to see other rain measurements)
** Current wind speed in m/s (hover to see current wind gust speed)